星链-1505 (STARLINK-1505 )

导读 | 豆包AI

STARLINK-1505是美国太空探索技术公司(SpaceX)星链星座的组网卫星,于2020年6月13日发射升空,属于星链项目早期部署批次,主要为全球提供低延迟、高速率的宽带互联网服务。作为低轨互联网卫星,它运行在近地轨道,是星链全球卫星互联网络建设的重要组成单元。

Basic Information
目录编号:
45783
目录名称:
STARLINK-1505
国际标识:
2020-038BF
轨道中心:
EARTH
卫星名称:
星链-1505
卫星全名:
星链-1505 (STARLINK-1505 )
卫星状态:
已陨落 最后检测时间 2024-11-03
发射日期:
2020-06-13 UTC
国别 :
美国 (US)
星等 :
--
Orbit Information
数据来源 国际轨道数据
星历时间: 2024-11-03T06:48:57+0800
轨道信息已过期543天
半长轴: 6520.055km
偏心率: 0.0004114
轨道倾角: 53.028°
近地点辐角 242.644°
升交点赤经 211.007°
平近点角 186.588°
近地点: 139.237km
远地点: 144.603km
周期: 87.325分钟
每日圈数: 16.4902
Detailed Information
固有亮度:
5
最大亮度:
2.5
卫星平台:
Starlink V1.0
覆盖范围:
全球
运营商:
太空探索技术公司
运营商所在国:
美国
制造商(研发单位):
太空探索技术公司
制造商所在国:
美国
使用方式:
暂无
Satellite Introduction
星链(Starlink)计划是由太空探索技术公司(SpaceX)提出的一个巨型低轨卫星互联网星座项目,计划在2019年至2024年间在太空搭建由约1.2万颗卫星组成的“星链”网络,其中1584颗将部署在地球上空550千米处的近地轨道,并从2020年开始工作。该卫星仍在工作。